Location: Keeble Observatory
(37.7625°N, 77.4755°W)
Time: 05:10:29
(UTC-04:00)

Daily predictions for brighter satellites

Satellite Brightness Start Highest point End
(mag) Time Altitude Azimuth Time Altitude Azimuth Time Altitude Azimuth
Cosmos 2333 Rocket 3.8 00:08:25 30° NW 00:08:25 30° NW 00:13:15 10° N
Cosmos 2237 Rocket 3.6 00:11:11 34° NNW 00:11:11 34° NNW 00:15:08 10° N
Cosmos 2278 Rocket 3.9 00:10:50 10° NW 00:13:40 28° NW 00:13:40 28° NW
ATLAS 3B R/B 4.0 00:14:05 10° NNW 00:19:57 29° NE 00:19:59 29° NE
CZ-4C R/B 3.7 00:32:13 10° NW 00:37:06 41° WNW 00:37:06 41° WNW
Cosmos 2369 Rocket 4.0 01:07:58 10° N 01:11:00 27° NNE 01:11:00 27° NNE
Cosmos 1943 Rocket 4.1 01:23:35 10° N 01:27:14 24° NE 01:27:14 24° NE
SL-16 R/B 4.3 01:32:42 20° NW 01:32:42 20° NW 01:35:52 10° N
ATLAS 2AS CENTAUR R/B 3.6 01:36:17 48° NW 01:36:17 48° NW 01:44:03 10° NNE
ATLAS 3B R/B 4.1 02:04:26 10° NW 02:07:12 25° NW 02:07:12 25° NW
BREEZE-M DEB (TANK) 4.5 02:33:34 34° NE 02:33:34 34° NE 02:38:41 10° NE
SL-16 R/B 4.0 02:37:42 23° ESE 02:40:10 31° ENE 02:45:27 10° N
USA 215 3.6 02:36:01 10° NE 02:42:20 54° NW 02:42:23 54° NW
Resurs 1-4 Rocket 3.8 02:39:52 10° NE 02:43:44 24° E 02:43:44 24° E
CZ-2D R/B 3.4 02:53:10 10° NNE 02:57:36 32° E 02:57:36 32° E
Lacrosse 5 rocket 3.5 03:01:29 26° ENE 03:01:29 26° ENE 03:03:49 10° NE
NOSS 3-2 (C) 3.9 02:54:51 10° NNW 03:02:32 90° WSW 03:04:05 63° SSE
ADEOS Rocket 3.8 03:03:27 10° NNE 03:09:24 48° E 03:10:33 43° SE
CENTAUR R/B 4.1 03:02:15 10° NNW 03:09:42 43° NE 03:17:36 10° ESE
Cosmos 1943 Rocket 4.0 03:06:48 10° NW 03:08:43 21° NW 03:08:43 21° NW
USA 267 3.9 03:06:52 10° ESE 03:13:10 54° NE 03:19:30 10° NW
ARIANE 5 R/B 3.3 03:09:48 10° NNE 03:14:41 45° E 03:14:41 45° E
RESURS DK-1 4.1 03:24:25 28° N 03:24:25 28° N 03:26:34 10° NNE
UNK 4.4 03:24:00 52° NE 03:24:00 52° NE 03:27:53 10° N
COSMOS 2406 3.3 03:24:34 70° NNW 03:24:34 70° NNW 03:29:53 10° NNE
NOSS 3-4 (A) 4.2 03:26:18 39° WNW 03:26:44 39° NW 03:32:48 10° NNE
NOSS 3-4 (C) 4.2 03:26:24 39° WNW 03:26:50 40° NW 03:32:55 10° NNE
Nadezhda 3 Rocket 4.0 03:27:31 66° WNW 03:27:31 66° WNW 03:33:37 10° N
Cosmos 1758 Rocket 4.5 03:31:28 46° ENE 03:31:28 46° ENE 03:35:05 10° NNE
IRS-1C 4.3 03:26:18 10° N 03:31:01 62° NW 03:31:01 62° NW
COSMOS 2455 2.9 03:26:16 10° NNW 03:31:32 66° WNW 03:31:32 66° WNW
Cosmos 921 Rocket 4.1 03:31:18 10° N 03:35:37 44° ENE 03:36:19 41° E
Cosmos 1818 3.7 03:36:03 63° ESE 03:36:08 63° ESE 03:41:32 10° NE
GEOS 3 Rocket 3.5 03:36:05 10° NNE 03:41:24 85° NW 03:41:34 82° W
CBERS 1 LM4 rocket 4.5 03:36:47 10° N 03:42:07 80° WNW 03:42:09 80° W
NOSS 2-2 (C) 3.9 03:45:54 58° NNE 03:45:54 58° NNE 03:49:36 10° NNE
Cosmos 1953 Rocket 3.7 03:52:54 72° N 03:52:54 72° N 03:56:55 10° N
Cosmos 1470 4.0 03:49:29 10° N 03:53:09 39° E 03:53:57 34° ESE
Cosmos 1727 Rocket 4.5 03:51:57 28° SSE 03:55:09 56° E 04:01:10 10° NNE
MOS 1 Rocket 4.4 03:54:22 10° NNE 03:58:26 37° E 04:00:06 27° SE
Cosmos 1953 3.0 03:55:35 10° N 03:58:31 47° NNW 03:58:31 47° NNW
CZ-2D R/B 3.8 03:56:37 10° NNE 04:00:35 54° E 04:00:51 53° ESE
UNKNOWN OBJECT B 2.7 04:04:15 10° NNE 04:08:16 85° E 04:08:20 84° SE
Cosmos 2098 Rocket 3.5 04:09:28 10° N 04:11:31 36° NNE 04:11:31 36° NNE
Cosmos 1624 Rocket 4.0 04:07:18 10° NNW 04:12:25 57° WSW 04:12:46 55° WSW
Cosmos 1821 Rocket 4.2 04:09:24 10° NNW 04:15:09 45° W 04:16:01 42° WSW
Cosmos 1758 4.5 04:12:59 10° NNW 04:15:33 31° NW 04:15:33 31° NW
Cosmos 389 Rocket 2.7 04:14:23 10° N 04:18:01 70° E 04:18:30 60° SE
USA 32 4.4 04:22:06 41° W 04:22:37 42° W 04:27:37 10° N
MOZ.5/SAFIR/RUBIN 5/SL-8 3.6 04:20:24 30° S 04:22:42 86° WSW 04:27:25 10° NNW
SL-16 R/B 2.9 04:22:47 38° WSW 04:23:36 39° W 04:29:20 10° NNW
Resurs 1-4 Rocket 2.7 04:19:12 10° N 04:24:00 37° WNW 04:24:50 35° W
Cosmos 1733 3.0 04:22:07 10° N 04:25:55 77° W 04:26:17 68° SSW
Cosmos 2056 Rocket 3.7 04:20:56 10° NNW 04:25:59 45° WSW 04:26:40 43° SW
Cosmos 2278 4.0 04:28:36 10° NNW 04:34:20 71° ENE 04:40:00 10° SSE
Cosmos 1934 Rocket 4.5 04:29:30 10° NNW 04:35:19 40° W 04:37:34 30° SW
Okean O Rocket 2.8 04:31:42 10° NNE 04:35:52 40° E 04:40:00 10° SSE
Cosmos 1605 Rocket 4.0 04:29:51 10° NNW 04:35:55 59° W 04:40:03 21° SSW
CZ-2D R/B 3.1 04:33:21 10° N 04:37:49 28° WNW 04:38:57 26° W
CZ-3 R/B 4.3 04:26:29 17° SSW 04:37:51 26° S 04:45:14 10° ESE
Lacrosse 5 rocket 2.9 04:37:11 24° WNW 04:38:47 29° NW 04:42:54 10° NNE
Cosmos 1339 Rocket 4.4 04:35:50 26° SSW 04:39:20 67° W 04:45:26 10° N
Cosmos 2369 3.8 04:36:28 10° NNW 04:42:14 81° ENE 04:47:57 10° SSE
Meteor 2-5 Rocket 3.8 04:47:50 21° SSW 04:51:44 67° W 04:57:32 10° N
ARIANE 5 R/B 4.0 04:49:46 10° NNW 04:53:34 21° WNW 04:55:01 19° W
ADEOS Rocket 4.2 04:49:41 10° NNW 04:54:40 27° WNW 04:57:31 20° WSW
Tiangong 1 0.8 04:54:21 32° WNW 04:55:29 77° NNE 04:58:18 10° ESE
USA 267 3.6 04:50:07 10° SSE 04:56:13 41° SW 05:02:20 10° WNW
CZ-4B R/B 3.3 04:52:21 10° NNE 04:56:43 72° ESE 05:01:11 10° S
USA 161 3.0 04:58:25 23° WNW 04:58:25 23° WNW 05:00:04 10° NW
Cosmos 1833 Rocket 2.6 04:53:46 18° SSW 04:58:02 89° WNW 05:03:41 10° NNE
Cosmos 2082 Rocket 2.2 04:54:47 19° SSW 04:58:59 80° WNW 05:04:43 10° NNE
GPS 2-05 Rocket1 3.5 04:58:18 30° SSW 04:59:27 41° SSE 05:02:45 10° E
Cosmos 1656 3.7 04:55:03 10° NNW 05:00:30 79° ENE 05:05:55 10° SSE
CENTAUR R/B 3.3 04:52:57 10° NW 05:00:37 48° WSW 05:08:36 10° S
Cosmos 1452 Rocket 3.6 04:55:50 10° NNW 05:00:57 55° WSW 05:06:04 10° S
Cosmos 1980 Rocket 4.1 04:56:22 10° N 05:01:30 34° ENE 05:06:35 10° SE
Delta 2 Rocket 3.0 05:01:28 32° WSW 05:02:41 50° S 05:05:57 10° ESE
Cosmos 1000 Rocket 4.5 04:57:10 10° S 05:03:19 90° WSW 05:09:34 10° N
Cosmos-2242 4.0 05:01:56 10° NNW 05:05:41 28° W 05:07:27 21° SW
Cosmos 2100 Rocket 3.9 05:01:53 10° N 05:08:04 79° W 05:14:12 10° S
Cosmos 1842 Rocket 3.5 05:04:35 10° NNW 05:08:58 64° W 05:13:21 10° S
CZ-4B R/B 3.3 05:04:43 10° NNE 05:10:06 76° ESE 05:15:23 10° S
Meteor 2-1 Rocket 4.4 05:06:36 10° N 05:12:18 79° E 05:18:04 10° SSE
Landsat 4 4.2 05:10:34 12° SSW 05:13:38 36° W 05:17:06 10° NNW
Cosmos 2173 Rocket 3.9 05:07:25 10° N 05:13:42 78° W 05:19:52 10° S
COSMOS 2487 4.0 05:12:45 19° W 05:13:51 21° WNW 05:16:39 10° NNW
PAYLOAD B 4.2 05:09:04 10° NNE 05:14:40 88° WNW 05:20:12 10° SSW
PSLV R/B 3.6 05:10:26 10° NNE 05:14:49 86° ESE 05:19:08 10° SSW
Cosmos 1420 Rocket 4.0 05:11:29 10° NNW 05:16:44 62° WSW 05:21:56 10° S
Cosmos 1707 4.3 05:16:30 17° W 05:17:36 19° WNW 05:20:22 10° NNW
IRS-1C Rocket 4.1 05:14:26 10° NNE 05:19:44 84° WNW 05:24:59 10° SSW
Cosmos 1048 Rocket 4.1 05:16:08 13° SW 05:20:32 55° WNW 05:25:34 10° N
Meteor 1-16 Rocket 4.5 05:18:36 10° NNW 05:23:37 42° W 05:28:34 10° SSW
Meteor 1-31 Rocket 4.2 05:21:34 10° NNE 05:25:17 40° E 05:29:00 10° S
Cosmos 2221 2.8 05:21:07 10° N 05:25:24 73° E 05:29:39 10° SSE
Orbus 7S? 2.3 05:25:04 10° NW 05:27:54 75° SW 05:30:32 10° SE
ADEOS II 2.2 05:23:09 10° N 05:28:21 61° WNW 05:33:31 10° SSW
Cosmos 1908 4.5 05:29:36 10° N 05:33:20 46° E 05:37:04 10° SSE
Cosmos 2061 Rocket 4.1 05:29:47 10° NNW 05:35:49 55° W 05:41:49 10° SSW
In-Cosmos 22 4.2 05:39:00 10° SSW 05:44:12 55° WNW 05:49:23 10° N
Cosmos 972 Rocket 4.4 05:38:21 10° NNW 05:44:36 61° W 05:50:07 10° S
Cosmos 2123 Rocket 4.0 05:42:52 10° SSW 05:49:08 70° W 05:55:26 10° N
Okean-O 3.0 05:44:44 10° NNE 05:49:10 69° E 05:53:35 10° S
EXPRESS MD2 2.5 05:45:51 10° WNW 05:49:43 67° SW 05:52:06 10° SE
Meteor 1-24 Rocket 4.5 05:46:14 10° SW 05:51:04 32° WNW 05:56:07 10° N
MTI 4.3 05:48:22 10° S 05:51:24 38° W 05:54:28 10° NNW
Cosmos 2016 Rocket 4.2 05:45:33 10° NNW 05:51:36 53° W 05:57:43 10° SSW
Cosmos 2251 Rocket 3.6 05:50:43 10° SSW 05:55:59 88° ESE 06:01:20 10° NNE
Cosmos 2360 4.5 05:51:19 10° NNW 05:57:04 79° ENE 06:02:47 10° SSE
